Wind_Speed
6 6 6 6 5 5 6 8 11 12 15 17 21 25 27 29 30 31 32 33 30 30 29 25 24 19 15 14 11 12 5 10 11 20 12 17 16 20 25 29 34 39 38 29 22
2 3 4 4 5 5 5 4 4 4 5 7 10 14 19 23 26 28 30 32 32 31 31 29 26 24 22 19 15 13 4 12 15 12 16 14 14 13 19 24 31 33 37 33 24
2 1 1 1 1 1 1 0 1 1 2 2 3 4 7 12 17 23 26 27 30 32 30 30 31 30 27 24 22 20 19 16 11 6 14 10 10 9 18 18 25 29 34 33 28
7 7 6 5 5 5 5 4 4 4 4 4 4 4 2 4 6 12 18 23 27 31 32 32 32 33 30 28 26 27 17 18 10 9 9 8 9 8 13 16 20 24 28 31 30
12 13 13 12 11 11 11 11 10 10 10 9 10 10 8 6 6 6 9 14 21 24 29 33 34 32 34 31 29 27 24 18 21 14 14 12 10 8 9 13 14 20 24 31 30
18 18 18 19 18 18 19 17 16 16 15 16 17 17 16 10 12 10 9 10 14 19 23 27 33 35 34 35 33 29 24 23 22 27 22 15 12 6 4 8 11 11 16 20 25
20 21 22 23 23 23 24 24 23 23 23 21 21 21 19 19 19 17 14 13 13 15 17 25 29 33 36 36 34 33 30 25 24 25 22 20 15 10 9 7 9 7 11 16 19
23 25 26 26 26 27 28 28 29 28 28 27 26 25 24 24 22 23 20 18 18 16 16 18 22 29 34 36 36 35 34 29 19 14 21 22 18 15 5 12 4 8 8 10 14
25 25 25 26 26 27 29 30 31 32 32 32 31 31 31 30 29 27 26 25 22 20 18 19 20 21 31 35 35 33 38 39 31 16 14 22 23 17 11 16 9 5 6 5 9
26 27 27 26 28 29 28 27 27 28 28 30 31 33 34 34 34 32 31 30 28 25 23 21 21 25 27 29 33 36 38 42 43 39 23 17 28 25 19 16 12 12 6 10 7
25 27 29 29 29 29 30 30 29 29 30 29 30 30 31 31 35 37 36 34 33 32 27 24 26 25 25 24 27 35 36 40 43 44 42 21 30 28 22 21 15 19 12 13 8
25 27 29 30 30 30 29 30 32 31 29 28 24 26 27 29 32 34 37 38 39 35 34 32 27 27 24 25 27 29 31 37 41 43 43 43 33 33 29 26 20 21 17 13 15
26 29 31 33 34 33 33 33 33 33 32 28 27 28 28 28 31 33 36 38 39 41 39 37 32 30 29 27 27 28 30 30 35 43 42 43 39 37 35 26 27 26 23 21 16
29 31 34 35 37 38 38 36 35 36 37 34 31 29 29 27 30 32 35 38 39 41 40 39 39 35 33 30 28 30 28 27 30 39 43 42 46 43 39 38 30 27 25 25 22
31 35 37 37 37 38 41 38 36 38 39 41 29 28 28 25 27 27 31 38 39 39 41 41 41 39 38 37 35 30 28 31 35 35 39 43 43 46 43 45 40 37 31 28 24
38 40 43 43 40 43 44 41 39 38 38 42 34 29 27 26 25 25 22 28 37 41 43 44 44 45 44 40 41 36 35 35 34 35 37 39 44 44 47 46 48 45 36 32 30
42 46 49 47 46 52 49 47 43 45 38 41 40 30 27 27 23 21 20 22 26 34 41 44 43 42 41 40 40 39 39 40 38 37 36 38 39 41 45 50 49 50 43 37 34
49 51 50 52 53 57 49 42 42 52 47 38 36 38 31 27 24 22 17 17 18 25 30 37 43 43 42 41 42 40 39 41 41 41 40 40 41 42 41 45 52 52 50 43 36
53 56 58 56 58 58 48 41 49 57 54 40 37 39 35 30 26 26 16 11 13 17 22 29 39 44 43 41 42 40 41 40 43 44 44 41 42 42 43 42 45 53 52 49 44
58 59 60 62 64 56 46 44 53 61 58 48 41 35 38 32 26 31 23 17 14 12 13 18 24 31 35 38 39 39 38 40 41 40 43 42 44 43 44 45 45 48 55 54 51
63 63 64 66 65 54 45 47 55 62 57 51 45 41 41 37 31 33 30 25 22 18 18 18 18 20 24 26 28 29 33 36 36 39 42 42 41 41 43 46 47 46 48 55 55
67 64 66 67 60 52 47 47 55 61 58 50 50 44 41 41 35 30 35 33 30 27 25 21 19 22 27 29 31 34 34 35 36 36 36 33 33 34 36 41 45 48 50 51 53
67 68 62 66 63 50 43 42 50 56 58 53 52 48 46 43 38 32 32 41 37 34 30 26 20 21 24 23 26 31 35 39 42 44 43 42 39 32 35 37 41 46 52 55 52
72 70 70 62 58 54 41 41 47 52 52 51 53 51 50 47 43 35 36 37 40 37 32 31 26 27 28 25 24 27 29 29 27 26 27 29 36 40 40 37 39 41 49 52 53
75 72 69 60 55 50 39 39 45 52 53 51 51 53 51 49 45 39 37 38 38 40 35 33 32 30 27 26 24 28 30 29 30 31 33 33 31 33 37 40 43 45 48 50 57
73 72 67 61 53 45 38 37 41 43 45 45 50 56 52 49 48 45 42 41 38 39 38 35 33 32 29 28 26 26 30 33 33 35 36 37 38 38 40 39 42 46 48 52 52
77 73 67 59 50 39 33 34 36 40 42 43 52 57 54 53 51 49 44 42 39 36 35 35 35 34 30 26 28 30 30 31 33 29 31 33 31 32 33 34 40 48 51 52 55
Wind_Direction
110 114 120 124 141 182 216 227 233 234 238 242 243 244 245 245 245 245 245 245 247 245 242 239 238 230 233 236 219 199 279 195 252 287 321 329 349 0 22 36 26 16 18 32 35
99 107 113 119 128 143 154 163 180 204 225 239 247 246 243 241 242 241 242 242 241 241 240 238 234 234 225 237 229 222 234 182 227 281 277 318 334 351 30 34 34 19 16 29 38
253 280 306 252 197 152 164 176 159 179 203 230 249 236 242 249 245 242 239 238 238 236 235 236 236 234 229 228 225 216 246 228 260 282 262 309 321 351 30 27 43 32 18 22 28
252 258 270 282 289 294 293 297 299 304 303 303 295 293 270 243 248 246 241 240 237 232 230 231 234 235 233 231 231 227 237 227 247 290 248 305 321 354 26 20 35 46 33 23 26
259 261 261 265 269 275 280 280 281 285 283 287 290 288 273 274 272 262 241 238 239 237 233 231 231 233 233 230 231 234 233 234 236 237 256 265 291 336 25 19 36 52 43 27 29
266 264 265 268 270 271 273 274 272 272 277 278 277 279 281 278 265 261 258 248 239 235 230 233 232 230 234 231 228 232 234 240 236 240 252 251 256 296 300 17 13 38 42 25 28
273 273 273 271 271 271 269 270 270 270 270 268 269 272 277 271 275 269 261 252 249 235 226 230 229 232 234 230 227 228 230 234 240 244 253 245 245 252 254 287 348 357 29 29 23
281 283 280 276 274 273 273 272 270 269 268 269 267 264 264 266 264 266 263 259 253 246 229 225 228 230 231 234 230 223 226 221 215 253 248 242 233 237 219 260 293 344 348 10 17
283 286 285 279 275 274 276 274 273 272 270 269 265 262 260 260 258 255 255 252 252 252 243 231 227 228 232 228 230 228 221 224 225 211 236 242 216 224 211 249 252 317 315 347 3
284 287 287 285 283 280 279 277 276 277 275 272 270 267 260 258 257 254 252 251 250 248 246 239 233 229 228 229 227 225 228 226 227 222 231 227 212 206 219 235 245 252 280 317 333
297 292 290 290 290 288 283 280 282 281 281 276 274 272 267 261 258 255 252 249 248 245 244 241 238 236 230 224 224 225 225 228 229 228 224 223 216 210 220 230 235 255 264 273 322
313 309 305 302 299 296 292 287 285 288 284 282 279 277 273 268 258 252 251 251 247 247 240 238 238 238 233 227 225 222 222 227 229 230 230 222 223 213 217 225 230 235 255 266 298
323 322 317 315 314 313 301 292 286 286 283 278 281 285 283 273 261 256 252 248 245 243 241 236 235 235 235 231 228 227 221 223 230 230 231 228 219 222 219 223 224 235 245 252 261
311 312 312 309 303 303 300 302 291 282 280 279 279 281 282 278 267 259 252 246 245 240 238 236 234 234 235 233 232 231 226 227 231 233 226 233 228 221 226 212 215 232 238 244 250
315 313 313 309 302 302 290 289 291 286 279 278 280 279 283 284 279 265 257 246 243 241 237 233 232 235 234 233 233 231 232 230 231 234 231 229 230 234 222 223 218 224 230 237 247
312 312 311 305 311 307 286 281 277 281 279 271 275 275 277 281 283 275 267 246 240 236 235 231 228 229 232 235 236 235 236 238 236 235 236 234 231 232 232 225 227 229 233 236 236
313 311 308 309 314 308 301 280 274 271 267 271 268 267 266 272 275 269 281 257 242 237 235 230 229 233 233 233 237 237 239 240 239 240 236 236 234 233 233 232 228 227 229 232 230
313 311 309 311 310 306 298 280 276 268 255 251 266 264 261 261 263 252 270 256 246 237 233 228 227 225 227 229 233 237 239 241 240 241 240 236 234 236 232 235 232 229 225 227 228
310 311 311 311 310 306 290 273 274 262 251 243 251 256 251 251 254 240 240 242 236 231 224 223 220 225 228 233 237 240 242 244 244 241 241 241 239 237 236 234 234 232 228 218 231
307 310 309 308 309 306 283 264 262 256 250 238 236 247 249 246 244 238 225 224 220 207 205 208 216 224 229 233 238 240 241 242 245 245 245 240 240 237 237 237 236 234 233 228 220
308 311 309 308 305 303 286 259 249 249 250 239 232 233 238 240 238 234 225 224 228 221 211 213 217 222 226 230 234 237 240 241 242 243 242 242 241 241 242 240 237 234 233 232 229
310 311 311 310 305 302 284 260 246 246 246 238 231 230 235 231 234 230 227 223 229 224 225 223 229 236 243 239 240 240 240 245 246 247 251 248 245 241 239 241 241 234 232 230 226
309 312 311 310 308 301 279 262 247 247 242 236 228 225 227 229 229 233 227 225 228 231 223 231 239 251 255 249 245 246 246 247 250 253 251 253 251 242 239 241 242 241 235 227 225
310 311 312 309 306 299 278 251 241 242 238 234 223 224 225 227 229 225 229 227 227 232 229 236 244 250 255 254 249 252 251 250 251 255 255 250 247 246 244 241 244 242 242 229 223
309 310 311 308 307 295 269 244 242 244 238 230 222 219 223 222 228 225 227 231 228 233 236 238 247 251 254 255 257 255 254 255 251 255 258 252 247 243 242 240 238 242 243 234 227
310 311 310 309 306 288 260 243 244 244 244 234 220 218 221 221 224 228 226 229 229 233 239 243 244 247 257 256 253 255 253 257 259 259 257 257 253 255 252 250 246 242 240 239 232
308 309 308 308 303 277 253 244 245 242 239 229 221 216 217 219 218 224 227 227 231 235 237 239 244 249 258 254 256 258 257 261 262 258 253 244 246 248 254 259 252 246 239 238 231
Height
10937 10938 10938 10938 10939 10940 10941 10941 10942 10943 10944 10945 10947 10948 10949 10951 10953 10955 10957 10960 10962 10965 10968 10971 10973 10977 10979 10977 10979 10978 10978 10979 10976 10973 10975 10974 10974 10971 10968 10964 10960 10952 10945 10939 10935
10938 10938 10939 10939 10939 10940 10940 10940 10940 10941 10942 10942 10943 10944 10944 10945 10946 10948 10951 10953 10956 10960 10963 10967 10970 10971 10974 10974 10974 10977 10979 10977 10977 10974 10975 10976 10975 10975 10973 10968 10964 10959 10951 10946 10942
10938 10939 10939 10939 10940 10940 10940 10940 10941 10941 10941 10941 10941 10941 10942 10942 10942 10943 10945 10946 10949 10953 10958 10962 10963 10964 10968 10970 10970 10971 10973 10976 10974 10974 10976 10977 10975 10974 10971 10971 10967 10965 10956 10950 10945
10938 10939 10939 10939 10940 10940 10940 10940 10940 10940 10940 10940 10940 10940 10940 10940 10940 10940 10940 10941 10943 10946 10952 10955 10957 10959 10962 10964 10965 10967 10970 10973 10973 10972 10975 10977 10976 10975 10972 10972 10969 10966 10963 10957 10952
10937 10937 10937 10938 10938 10938 10938 10938 10938 10938 10938 10938 10938 10937 10938 10939 10938 10938 10937 10937 10938 10941 10945 10948 10950 10952 10954 10957 10960 10963 10968 10969 10970 10971 10974 10976 10977 10976 10974 10971 10971 10967 10965 10963 10958
10934 10934 10934 10935 10935 10935 10935 10935 10935 10935 10935 10936 10935 10935 10934 10936 10934 10935 10935 10934 10934 10937 10939 10941 10942 10945 10946 10951 10956 10960 10963 10965 10966 10968 10971 10972 10975 10975 10974 10972 10971 10970 10967 10965 10964
10930 10931 10931 10931 10931 10931 10931 10931 10931 10931 10931 10931 10932 10932 10932 10932 10931 10932 10932 10932 10931 10933 10935 10935 10936 10939 10941 10944 10951 10956 10958 10959 10962 10965 10967 10970 10972 10972 10972 10972 10971 10971 10968 10967 10965
10926 10926 10925 10925 10925 10925 10925 10925 10925 10925 10925 10925 10926 10927 10927 10926 10927 10926 10928 10928 10928 10928 10930 10931 10931 10932 10934 10937 10945 10950 10953 10956 10960 10961 10964 10966 10968 10968 10968 10970 10971 10969 10968 10968 10966
10920 10920 10919 10918 10919 10919 10918 10918 10917 10917 10918 10918 10919 10919 10919 10920 10920 10921 10921 10922 10923 10924 10926 10926 10926 10927 10928 10932 10939 10945 10947 10950 10955 10959 10960 10962 10965 10966 10965 10965 10970 10970 10969 10968 10967
10914 10913 10912 10912 10912 10912 10911 10910 10910 10910 10910 10911 10910 10910 10912 10913 10912 10913 10914 10915 10917 10918 10920 10921 10921 10922 10922 10928 10932 10937 10940 10944 10949 10953 10957 10958 10961 10963 10963 10964 10967 10968 10969 10969 10968
10909 10908 10906 10905 10905 10905 10905 10904 10903 10903 10902 10903 10902 10901 10901 10903 10903 10904 10905 10907 10909 10911 10914 10915 10915 10916 10920 10922 10924 10929 10933 10937 10941 10946 10952 10954 10957 10958 10961 10963 10966 10965 10969 10969 10968
10904 10902 10901 10899 10898 10897 10897 10896 10895 10895 10894 10893 10895 10894 10893 10892 10893 10894 10896 10898 10900 10903 10906 10907 10910 10911 10914 10916 10918 10921 10926 10929 10932 10938 10943 10948 10951 10954 10958 10960 10962 10965 10966 10969 10968
10898 10896 10895 10893 10892 10891 10890 10889 10888 10887 10885 10886 10886 10886 10884 10883 10883 10884 10885 10887 10890 10892 10895 10900 10903 10905 10907 10910 10912 10915 10919 10923 10926 10928 10934 10941 10946 10949 10953 10956 10959 10962 10963 10965 10966
10893 10891 10887 10886 10884 10883 10881 10881 10880 10878 10876 10876 10877 10877 10876 10874 10872 10874 10874 10876 10878 10881 10886 10891 10895 10898 10900 10903 10906 10908 10914 10917 10918 10918 10929 10931 10937 10944 10947 10951 10954 10958 10960 10962 10962
10886 10883 10879 10876 10875 10873 10870 10871 10870 10868 10867 10864 10865 10866 10866 10864 10862 10863 10862 10864 10868 10872 10876 10881 10886 10890 10892 10895 10898 10903 10906 10909 10910 10914 10920 10925 10931 10933 10941 10946 10950 10954 10957 10957 10961
10876 10872 10870 10865 10866 10861 10860 10858 10858 10857 10857 10855 10856 10857 10858 10856 10855 10854 10853 10853 10856 10860 10863 10869 10875 10878 10883 10888 10890 10897 10899 10901 10905 10909 10913 10918 10923 10926 10931 10939 10942 10945 10952 10955 10958
10866 10861 10855 10854 10855 10848 10846 10845 10844 10841 10844 10844 10846 10847 10850 10849 10848 10848 10846 10845 10847 10849 10853 10859 10866 10872 10878 10880 10882 10887 10892 10894 10898 10901 10906 10909 10915 10917 10922 10928 10934 10940 10946 10950 10954
10853 10847 10843 10841 10839 10833 10829 10830 10829 10819 10826 10831 10837 10836 10839 10841 10840 10842 10841 10840 10840 10841 10844 10849 10856 10861 10866 10870 10874 10879 10883 10886 10891 10893 10896 10902 10906 10909 10915 10916 10924 10931 10939 10945 10948
10839 10835 10828 10826 10821 10816 10813 10814 10808 10795 10808 10822 10823 10825 10828 10831 10832 10835 10836 10837 10836 10836 10838 10840 10845 10851 10857 10862 10865 10871 10874 10878 10878 10882 10886 10893 10898 10903 10906 10911 10914 10919 10929 10938 10942
10823 10822 10815 10807 10801 10798 10795 10793 10782 10773 10789 10804 10810 10816 10817 10822 10824 10826 10830 10833 10834 10834 10835 10836 10840 10845 10850 10854 10858 10861 10866 10866 10869 10875 10877 10883 10886 10894 10899 10902 10906 10912 10919 10927 10935
10809 10804 10795 10789 10781 10778 10775 10770 10759 10755 10771 10789 10797 10800 10802 10809 10814 10818 10823 10827 10829 10832 10832 10834 10837 10841 10844 10848 10851 10853 10854 10857 10861 10863 10866 10872 10879 10885 10890 10890 10896 10901 10906 10912 10920
10790 10788 10777 10764 10762 10758 10753 10749 10742 10740 10754 10769 10780 10787 10791 10797 10803 10808 10815 10819 10821 10824 10827 10831 10834 10836 10838 10843 10845 10845 10847 10849 10852 10855 10858 10865 10871 10873 10878 10879 10882 10888 10891 10896 10905
10771 10767 10763 10750 10737 10738 10731 10731 10728 10724 10737 10751 10762 10770 10777 10784 10793 10800 10805 10809 10812 10816 10822 10826 10829 10829 10830 10834 10835 10835 10839 10841 10843 10845 10849 10854 10859 10865 10865 10868 10870 10873 10874 10881 10896
10752 10746 10739 10734 10724 10714 10715 10710 10710 10708 10723 10735 10745 10757 10765 10772 10780 10790 10795 10798 10804 10808 10813 10817 10821 10821 10823 10826 10828 10828 10829 10831 10834 10837 10838 10841 10845 10849 10853 10858 10859 10860 10859 10873 10881
10733 10729 10718 10714 10706 10697 10695 10696 10697 10700 10708 10722 10736 10742 10751 10762 10770 10780 10786 10789 10796 10799 10804 10809 10811 10813 10815 10817 10820 10820 10821 10823 10826 10828 10829 10830 10833 10836 10839 10843 10846 10846 10849 10856 10864
10715 10707 10703 10693 10688 10680 10680 10683 10686 10693 10699 10717 10723 10728 10738 10751 10761 10767 10775 10780 10786 10791 10795 10799 10802 10804 10805 10809 10811 10812 10812 10813 10816 10817 10818 10817 10823 10825 10826 10831 10833 10834 10837 10841 10848
10693 10690 10680 10680 10671 10665 10670 10671 10677 10683 10688 10697 10704 10714 10724 10733 10745 10753 10764 10771 10777 10781 10786 10790 10792 10794 10796 10799 10802 10802 10803 10804 10804 10806 10807 10808 10810 10813 10814 10814 10817 10819 10820 10823 10832